Date String (YYYY-MM-DD hh:mm:ss) UTC,Instrument flags,Ambient pressure (hPa),Sample flow (lpm),Bypass flow (lpm),Sample temperature (°C),Ambient temperature (°C),ASC tube jacket temperature (°C),LED temperature (°C),Box temperature (°C),Sample RH (%),Span deviation,Mass concentration (μg/m³),Mass concentration (μg/m³),Mass concentration (μg/m³)
DateTimeUTC,F1_M11,P_M11,Q1_M11,Q2_M11,T1_M11,T2_M11,T3_M11,T4_M11,T5_M11,U1_M11,ZSPAN_M11,X0_M11,X2_M11,X1_M11
2022-07-17 13:00:00,,0830.8,5.01,0.00,29.9,28.8,00.0,38.7,31.9,26.1,0000.0,0021.36,0008.31,0006.15
2022-07-17 13:01:00,,0830.8,5.00,0.00,29.9,28.8,00.0,38.7,31.9,25.8,0000.0,0021.99,0008.20,0006.15
2022-07-17 13:02:00,,0830.7,4.99,0.00,30.0,28.9,00.0,38.7,31.9,25.8,0000.0,0023.52,0008.11,0006.14
2022-07-17 13:03:00,,0830.7,5.00,0.00,30.0,28.9,00.0,38.7,31.9,25.9,0000.0,0023.79,0008.10,0006.14
2022-07-17 13:04:00,,0830.7,4.99,0.00,30.0,29.0,00.0,38.7,32.0,26.0,0000.0,0024.14,0008.06,0006.14
2022-07-17 13:05:00,,0830.8,5.01,0.00,30.0,29.0,00.0,38.8,32.0,26.1,0000.0,0024.53,0008.01,0006.14
2022-07-17 13:06:00,,0830.8,4.99,0.00,30.1,29.0,00.0,38.8,32.0,25.7,0000.0,0024.42,0007.94,0006.13
2022-07-17 13:07:00,,0830.8,5.00,0.00,30.1,29.1,00.0,38.8,32.0,25.4,0000.0,0024.24,0007.92,0006.10
2022-07-17 13:08:00,,0830.8,5.00,0.00,30.1,28.9,00.0,38.8,32.0,25.5,0000.0,0023.59,0007.92,0006.09
2022-07-17 13:09:00,,0830.7,5.00,0.00,30.1,28.1,00.0,38.7,31.9,25.7,0000.0,0024.30,0007.82,0006.05
2022-07-17 13:10:00,,0830.8,5.01,0.00,30.1,27.5,00.0,38.7,31.9,25.9,0000.0,0024.52,0007.77,0006.01
2022-07-17 13:11:00,,0830.7,4.99,0.00,30.0,27.5,00.0,38.7,31.7,26.1,0000.0,0024.47,0007.67,0005.96
2022-07-17 13:12:00,,0830.8,5.00,0.00,29.9,27.5,00.0,38.7,31.6,26.6,0000.0,0023.95,0007.61,0005.93
2022-07-17 13:13:00,,0830.8,5.00,0.00,29.9,27.7,00.0,38.7,31.6,26.5,0000.0,0022.01,0007.59,0005.92
2022-07-17 13:14:00,,0830.9,5.00,0.00,29.8,27.8,00.0,38.6,31.6,26.4,0000.0,0022.03,0007.55,0005.90
2022-07-17 13:15:00,,0830.9,4.99,0.00,29.8,28.0,00.0,38.6,31.6,26.4,0000.0,0021.73,0007.51,0005.90
2022-07-17 13:16:00,,0830.8,5.00,0.00,29.8,28.1,00.0,38.6,31.6,26.8,0000.0,0021.60,0007.52,0005.92
2022-07-17 13:17:00,,0830.8,5.00,0.00,29.8,28.2,00.0,38.6,31.7,26.6,0000.0,0022.58,0007.54,0005.93
2022-07-17 13:18:00,,0830.8,5.01,0.00,29.8,28.3,00.0,38.6,31.7,26.5,0000.0,0023.86,0007.55,0005.94
2022-07-17 13:19:00,,0830.8,4.99,0.00,29.8,28.5,00.0,38.6,31.7,26.4,0000.0,0023.82,0007.55,0005.95
2022-07-17 13:20:00,,0830.8,5.00,0.00,29.9,28.5,00.0,38.6,31.7,26.2,0000.0,0022.04,0007.53,0005.95
2022-07-17 13:21:00,,0830.8,5.01,0.00,29.9,28.6,00.0,38.7,31.8,26.1,0000.0,0020.62,0007.48,0005.98
2022-07-17 13:22:00,,0830.9,5.00,0.00,29.9,28.7,00.0,38.7,31.8,26.2,0000.0,0019.24,0007.47,0006.01
2022-07-17 13:23:00,,0830.9,5.00,0.00,29.9,28.8,00.0,38.7,31.8,26.1,0000.0,0019.35,0007.45,0006.03
2022-07-17 13:24:00,,0830.9,4.99,0.00,29.9,28.8,00.0,38.7,31.9,26.4,0000.0,0019.35,0007.42,0006.03
2022-07-17 13:25:00,,0830.9,5.00,0.00,30.0,28.9,00.0,38.7,31.9,26.6,0000.0,0019.00,0007.40,0006.06
2022-07-17 13:26:00,,0830.9,5.01,0.00,30.0,28.9,00.0,38.7,31.9,26.2,0000.0,0018.59,0007.47,0006.06
2022-07-17 13:27:00,,0830.9,5.00,0.00,30.0,29.0,00.0,38.7,32.0,26.8,0000.0,0018.33,0007.48,0006.05
2022-07-17 13:28:00,,0830.8,4.99,0.00,30.1,29.0,00.0,38.8,32.0,26.8,0000.0,0017.28,0007.45,0006.06
2022-07-17 13:29:00,,0830.8,5.00,0.00,30.1,28.8,00.0,38.8,32.0,26.7,0000.0,0016.09,0007.40,0006.06
2022-07-17 13:30:00,,0830.8,5.00,0.00,30.1,28.0,00.0,38.7,31.9,26.7,0000.0,0016.03,0007.40,0006.07
2022-07-17 13:31:00,,0830.8,5.00,0.00,30.0,27.6,00.0,38.7,31.8,26.9,0000.0,0016.53,0007.48,0006.08
2022-07-17 13:32:00,,0830.9,4.99,0.00,30.0,27.6,00.0,38.7,31.7,26.7,0000.0,0016.96,0007.57,0006.09
2022-07-17 13:33:00,,0830.9,5.00,0.00,29.9,27.7,00.0,38.6,31.6,26.9,0000.0,0017.49,0007.56,0006.09
2022-07-17 13:34:00,,0830.9,5.01,0.00,29.9,27.8,00.0,38.6,31.6,27.1,0000.0,0017.07,0007.60,0006.10
2022-07-17 13:35:00,,0830.9,4.99,0.00,29.8,27.9,00.0,38.6,31.6,27.0,0000.0,0017.70,0007.64,0006.11
2022-07-17 13:36:00,,0830.9,5.00,0.00,29.8,28.1,00.0,38.6,31.6,26.9,0000.0,0017.63,0007.62,0006.10
2022-07-17 13:37:00,,0830.9,5.00,0.00,29.8,28.2,00.0,38.6,31.7,26.4,0000.0,0017.03,0007.52,0006.09
2022-07-17 13:38:00,,0830.9,5.01,0.00,29.8,28.3,00.0,38.6,31.7,25.9,0000.0,0016.35,0007.42,0006.07
2022-07-17 13:39:00,,0830.9,5.00,0.00,29.8,28.4,00.0,38.6,31.7,26.8,0000.0,0016.07,0007.37,0006.06
2022-07-17 13:40:00,,0830.9,5.00,0.00,29.9,28.5,00.0,38.7,31.8,26.8,0000.0,0016.31,0007.36,0006.07
2022-07-17 13:41:00,,0830.9,5.00,0.00,29.9,28.6,00.0,38.7,31.7,26.3,0000.0,0015.60,0007.28,0006.07
2022-07-17 13:42:00,,0830.9,5.00,0.00,29.9,28.7,00.0,38.7,31.8,26.2,0000.0,0014.71,0007.24,0006.08
2022-07-17 13:43:00,,0830.9,5.00,0.00,29.9,28.8,00.0,38.7,31.9,26.6,0000.0,0015.10,0007.17,0006.06
2022-07-17 13:44:00,,0830.9,5.01,0.00,30.0,28.9,00.0,38.7,31.9,26.1,0000.0,0014.73,0007.15,0006.06
2022-07-17 13:45:00,,0831.0,4.99,0.00,30.0,28.9,00.0,38.7,31.9,26.3,0000.0,0014.79,0007.13,0006.07
2022-07-17 13:46:00,,0831.0,5.00,0.00,30.0,28.9,00.0,38.7,32.0,26.5,0000.0,0014.29,0007.07,0006.06
2022-07-17 13:47:00,,0831.0,5.00,0.00,30.0,28.4,00.0,38.7,32.0,27.1,0000.0,0013.92,0007.04,0006.04
2022-07-17 13:48:00,,0830.9,5.00,0.00,30.0,27.7,00.0,38.6,31.8,28.3,0000.0,0014.06,0007.07,0006.04
2022-07-17 13:49:00,,0830.9,4.99,0.00,30.0,27.5,00.0,38.6,31.8,26.8,0000.0,0014.24,0007.13,0006.05
2022-07-17 13:50:00,,0830.9,5.01,0.00,29.9,27.6,00.0,38.6,31.6,26.7,0000.0,0014.23,0007.15,0006.04
2022-07-17 13:51:00,,0830.9,5.01,0.00,29.8,27.7,00.0,38.6,31.6,26.8,0000.0,0013.77,0007.18,0006.02
2022-07-17 13:52:00,,0830.9,5.00,0.00,29.8,27.8,00.0,38.6,31.6,27.2,0000.0,0013.98,0007.27,0006.01
2022-07-17 13:53:00,,0830.9,5.01,0.00,29.8,28.0,00.0,38.6,31.6,26.6,0000.0,0013.84,0007.21,0006.00
2022-07-17 13:54:00,,0830.9,5.00,0.00,29.8,28.1,00.0,38.6,31.6,25.3,0000.0,0013.56,0007.26,0006.00
2022-07-17 13:55:00,,0830.9,4.99,0.00,29.8,28.2,00.0,38.6,31.6,25.8,0000.0,0013.13,0007.31,0005.99
2022-07-17 13:56:00,,0830.9,5.00,0.00,29.8,28.4,00.0,38.6,31.7,25.8,0000.0,0012.83,0007.27,0005.97
2022-07-17 13:57:00,,0830.9,5.00,0.00,29.8,28.5,00.0,38.6,31.7,25.8,0000.0,0013.34,0007.23,0005.97
2022-07-17 13:58:00,,0830.9,5.00,0.00,29.8,28.6,00.0,38.6,31.8,25.7,0000.0,0013.90,0007.19,0005.98
2022-07-17 13:59:00,,0830.9,4.99,0.00,29.9,28.7,00.0,38.6,31.8,26.1,0000.0,0014.92,0007.15,0005.98
